User: anonymous   Login
Location: Unspecified
(0.0000°N, 0.0000°E)
Time: 23:25:43
(UTC+00:00)
Language:

KH 9-19 ELINT - Orbit

View from above orbital plane
View from above orbital plane
View from above satellite
View from above satellite

Ground track
Ground track

The orbit data is extracted from the following two-line orbital elements,

1 15071U 84065C   17168.91560005 0.00001150  00000-0  11131-3 0    06
2 15071  95.8866  72.7682 0002996 277.7355  82.2643 14.92834140    03
Epoch (UTC): 17 June 2017 21:58:27
Eccentricity: 0.0002996
inclination: 95.8866°
perigee height: 587 km
apogee height: 591 km
right ascension of ascending node: 72.7682°
argument of perigee: 277.7355°
revolutions per day: 14.92834140
mean anomaly at epoch: 82.2643°
orbit number at epoch: 0

The dashed part of the orbit path shows where the satellite is in the earth's shadow,  

DLR